Flag for Germany Weather past 2 weeks in Viernheim, Hesse, Germany

Now
73 °F

Scattered showers. Broken clouds.


Feels Like: 76 °F
Forecast: 64 / 76 °F
Wind: 8 mph from West

Location: Baden Wurttemberg - Neuostheim

Current Time: Jul 28, 2014 at 10:36:17 PM

Latest Report: Jul 28, 2014 at 9:50 PM


Visibility: N/A

Pressure: 29.80 "Hg

Humidity: 69%

Dew point: 63 °F

Location of ViernheimLocation

Historic Weather in Viernheim — Graph

°F

Viernheim temperature yesterday

Maximum temperature yesterday: 84 °F (at 3:50 PM)
Minimum temperature yesterday: 66 °F (at 7:50 AM)
Average temperature yesterday: 77 °F

Past Weeks' High & Low Weather Summary

 TemperatureHumidityPressure
High93 °F (Jul 18, 4:50 PM)100% (Jul 21, 5:50 AM)30.18 "Hg (Jul 21, 5:50 AM)
Low59 °F (Jul 15, 5:20 AM)20% (Jul 18, 5:50 PM)29.77 "Hg (Jul 28, 5:20 PM)
Average76 °F59%29.97 "Hg
* Reported Jul 14 5:50 AM — Jul 28 9:20 PM, Viernheim, Weather by CustomWeather, © 2014

Note: Actual official high and low records may vary slightly from our data, if they occured in-between our weather recording intervals... More about our weather records

Advertising

Viernheim weather history for previous 24 hours

 ConditionsComfort  
Time TempWeatherWind HumidityBarometerVisibility
9:20 PM
Jul 28
73 °FBroken clouds.6 mph74%29.80 "HgN/A
8:50 PM73 °FPartly sunny.9 mph69%29.80 "HgN/A
8:20 PM73 °FSunny.12 mph65%29.80 "Hg10 mi
7:50 PM75 °FPartly sunny.10 mph65%29.80 "HgN/A
7:20 PM77 °FPartly sunny.7 mph61%29.77 "HgN/A
6:50 PM77 °FPartly sunny.7 mph61%29.77 "HgN/A
6:20 PM77 °FBroken clouds.7 mph57%29.77 "HgN/A
5:50 PM79 °FThundershowers. Scattered clouds.9 mph54%29.77 "HgN/A
5:20 PM79 °FScattered clouds.13 mph54%29.77 "HgN/A
4:50 PM79 °FScattered clouds.13 mph58%29.80 "HgN/A
4:20 PM84 °FPassing clouds.2 mph43%29.80 "HgN/A
3:50 PM82 °FSunny.3 mph45%29.80 "Hg10 mi
3:20 PM81 °FScattered clouds.3 mph48%29.80 "HgN/A
2:50 PM81 °FScattered clouds.5 mph51%29.80 "HgN/A
2:20 PM82 °FPassing clouds.3 mph48%29.83 "HgN/A
1:50 PM81 °FPassing clouds.3 mph51%29.83 "HgN/A
1:20 PM81 °FPassing clouds.3 mph54%29.86 "HgN/A
12:50 PM79 °FPassing clouds.3 mph58%29.86 "HgN/A
12:20 PM79 °FPassing clouds.5 mph58%29.86 "HgN/A
11:50 AM77 °FPassing clouds.6 mph61%29.86 "HgN/A
11:20 AM77 °FSunny.5 mph65%29.86 "Hg10 mi
10:50 AM73 °FSunny.3 mph74%29.89 "Hg10 mi
10:20 AM70 °FSunny.3 mph78%29.89 "Hg10 mi
9:50 AM70 °FSunny.2 mph83%29.89 "Hg10 mi
9:20 AM68 °FSunny.1 mph83%29.92 "Hg10 mi
8:50 AM66 °FSunny.2 mph88%29.92 "Hg10 mi
8:20 AM66 °FSunny.2 mph88%29.92 "Hg10 mi
7:50 AM66 °FSunny.2 mph88%29.89 "Hg10 mi
7:20 AM64 °FSunny.1 mph94%29.92 "Hg10 mi
6:50 AM63 °FClear.1 mph100%29.92 "Hg10 mi
6:20 AM63 °FClear.No wind94%29.92 "Hg10 mi
5:50 AM63 °FClear.1 mph94%29.92 "Hg10 mi
Weather by CustomWeather, © 2014

See weather overviewHow to use our weather pages